This is the latest recevied weather packets stored in our database for station/object AI5YA-13. If no packets are shown the sender has not sent any weather packets the latest 1 day(s).
| Time | Temp. | Humidity | Pressure | Rain* | Wind** | Luminosity | Snow |
|---|---|---|---|---|---|---|---|
| 1778035046 | 22.22° C | 39% | 1008.9 hPa | 0 mm | 0 m/s | 0 W/m² | - |
| 1778034743 | 22.22° C | 39% | 1008.5 hPa | 0 mm | 0 m/s | 0 W/m² | - |
| 1778034439 | 22.22° C | 39% | 1008.7 hPa | 0 mm | 0 m/s | 0 W/m² | - |
| 1778034137 | 21.67° C | 40% | 1008.9 hPa | 0 mm | 0 m/s | 0 W/m² | - |
| 1778033835 | 22.22° C | 40% | 1009 hPa | 0 mm | 0 m/s | 0 W/m² | - |
| 1778033532 | 21.67° C | 40% | 1008.8 hPa | 0 mm | 0 m/s | 0 W/m² | - |
| 1778033228 | 22.22° C | 40% | 1009 hPa | 0 mm | 0 m/s | 0 W/m² | - |
| 1778032926 | 22.22° C | 39% | 1009.1 hPa | 0 mm | 0 m/s | 0 W/m² | - |
| 1778032624 | 22.78° C | 38% | 1009.2 hPa | 0 mm | 0 m/s | 0 W/m² | - |
| 1778032321 | 22.78° C | 39% | 1009.2 hPa | 0 mm | 0 m/s | 0 W/m² | - |
| 1778032018 | 22.78° C | 38% | 1009 hPa | 0 mm | 0 m/s | 0 W/m² | - |
| 1778031714 | 23.33° C | 37% | 1009.1 hPa | 0 mm | 0 m/s | 0 W/m² | - |
| 1778031412 | 23.33° C | 37% | 1009.1 hPa | 0 mm | 0 m/s | 0 W/m² | - |
| 1778031109 | 23.33° C | 37% | 1009 hPa | 0 mm | 0 m/s | 2 W/m² | - |
| 1778030805 | 23.89° C | 36% | 1009.1 hPa | 0 mm | 0 m/s | 4 W/m² | - |
| 1778030502 | 23.89° C | 35% | 1009.1 hPa | 0 mm | 0 m/s | 6 W/m² | - |
| 1778030199 | 23.89° C | 35% | 1009 hPa | 0 mm | 0 m/s | 7 W/m² | - |
| 1778029895 | 24.44° C | 34% | 1009.1 hPa | 0 mm | 0 m/s | 10 W/m² | - |
| 1778029595 | 25° C | 33% | 1009 hPa | 0 mm | 0 m/s | 16 W/m² | - |
| 1778029291 | 25° C | 32% | 1009 hPa | 0 mm | 0 m/s | 23 W/m² | - |
| 1778028988 | 25° C | 32% | 1008.8 hPa | 0 mm | 0 m/s | 33 W/m² | - |
| 1778028684 | 25.56° C | 33% | 1008.9 hPa | 0 mm | 0 m/s | 46 W/m² | - |
| 1778028381 | 25° C | 33% | 1009 hPa | 0 mm | 0 m/s | 55 W/m² | - |
| 1778028078 | 25.56° C | 32% | 1008.9 hPa | 0 mm | 0 m/s | 65 W/m² | - |
| 1778027775 | 25.56° C | 32% | 1009 hPa | 0 mm | 0 m/s | 109 W/m² | - |
* Rain latest hour (hover to see other rain measurements)
** Current wind speed in m/s (hover to see current wind gust speed)